Location: Brighton Point
(40.6144°N, 111.7933°W)
Time: 23:17:23
(UTC+00:00)

N. Korean satellite - Pass Details

Date: 05 March 2021
Orbit: 453 x 499 km, 97.2° (Epoch: 12 April)

Event Time Altitude Azimuth Distance (km) Brightness Sun altitude
Rises 12:23:25 0° 21° (NNE) 2,532 10.6 -18.0°
Reaches altitude 10° 12:25:35 10° 30° (NNE) 1,657 9.8 -17.6°
Maximum altitude 12:28:52 35° 98° (E) 802 8.3 -17.0°
Drops below altitude 10° 12:32:12 10° 165° (SSE) 1,669 9.4 -16.4°
Sets 12:34:23 0° 174° (S) 2,552 10.2 -16.0°
